Weather in Borj Sedria

Tunisia     36°42′48″N   10°22′10″E
temp.,
°C
wind,
m/s
gust,
m/s
humid.,
%
clouds,
%
prec.,
mm/h
press.,
hPa
HPBL,
m
4 august, wed
wed401:00+29s6175127 0.0 1011326
04:00+30s38365 0.0 1010216
07:00+30nw11371 0.0 1012102
10:00+34ene33360 0.0 1013531
13:00+36ne56339 0.0 1011547
16:00+30ne78551 0.0 1012495
19:00+29nne56570 0.0 1012602
22:00+27wnw35630 0.0 1015342
5 august, thu
thu501:00+26nw586253 0.0 1015520
04:00+25wnw375995 0.0 1015375
07:00+26nw35565 0.0 1015509
10:00+30n45410 0.0 1015807
13:00+31ne654014 0.0 10141045
16:00+30ne66430 0.0 1013621
19:00+28ne45530 0.0 1013461
22:00+26n23580 0.0 1014230
6 august, fri
fri601:00+26w125786 0.0 1013165
04:00+25wsw11571 0.0 101176
07:00+26nne11515 0.0 1012163
10:00+31ne21370 0.0 1012618
13:00+33ne53330 0.0 1011860
16:00+31ne55380 0.0 1010403
19:00+29ne45480 0.0 1010255
22:00+28sse34490 0.0 1011132
7 august, sat
sat701:00+27sse23535 0.0 101078
04:00+26sse23540 0.0 100974
07:00+28se34480 0.0 1009169
10:00+35sse69270 0.0 1009832
13:00+40s79200 0.0 10071332
16:00+38se710260 0.0 1006603
19:00+33se612360 0.0 1006408
22:00+31se36450 0.0 1009237
8 august, sun
sun801:00+28s23560 0.0 1010111
04:00+28wnw11555 0.0 101196
07:00+29se12515 0.0 1012165
10:00+34ne22375 0.0 1013666
13:00+34ne64401 0.0 1013435
16:00+34ne554214 0.0 1012499
19:00+33ese464368 0.0 1013269
22:00+30se465499 0.0 1014182